Back to catalog

STARLINK-35124

AliveCommunicationsVLEO
NORAD 65511·PAYLOAD·🇺🇸 United States

Launched Sep 5, 2025 from Cape Canaveral Space Force Station

Loading…

Next Passes (next 24 hours)

TLE

FreshSource: CelesTrak SupGP

Epoch: Sep 14, 2026, 14:16 UTC

1 65511C 25198V   26257.59493056  .00021892  00000+0  64669-3 0  2578
2 65511  53.1579 109.0431 0001522  87.1346 353.4096 15.34384159    11

Track STARLINK-35124 in real time with AllMySat

Download on the App Store